Logan, UT

3:40 AM MST on December 14, 2019 (GMT -0700)
Logan-Cache

Weather History for KLGU - October, 2019

Change the Weather History Date:

Thursday, October 17, 2019

  Actual Average Record
Temperature  
Mean Temperature 52 °F -  
Max Temperature 71 °F 61 °F 79 °F (1991)
Min Temperature 35 °F 32 °F 18 °F (1999)
Degree Days  
Heating Degree Days 12    
Growing Degree Days 2 (Base 50)    
Moisture  
Dew Point 34 °F    
Average Humidity 63    
Maximum Humidity 93    
Minimum Humidity 23    
Precipitation  
Precipitation 0.42 in - - ()
Sea Level Pressure  
Sea Level Pressure 29.72 in    
Wind  
Wind Speed 5 mph ()    
Max Wind Speed 22 mph    
Max Gust Speed 26 mph    
Visibility 9.2 miles    
Events Rain    
Averages and records for this station are not official NWS values.
T = Trace of Precipitation, MM = Missing Value Source: Averaged Metar Reports

Daily Weather History Graph

Daily Weather History Graph

Search for Another Location

Airport or City:

Astronomy

Oct. 17, 2019 Rise Set
Actual Time 7:41 AM MDT 6:43 PM MDT
Civil Twilight 7:13 AM MDT 7:11 PM MDT
Nautical Twilight 6:41 AM MDT 7:43 PM MDT
Astronomical Twilight 6:09 AM MDT 8:15 PM MDT
Moon 9:14 PM MDT (10/17) 11:19 AM MDT (10/17)
Length of Visible Light 11h 57m
Length of Day
11h 01m
Waning Gibbous, 86% of the Moon is Illuminated
Oct 17
Waning Gibbous
Oct 21
Last Quarter
Oct 27
New
Nov 4
First Quarter
Nov 12
Full

Hourly Weather History & Observations

Time (MDT) Temp. Windchill Dew Point Humidity Pressure Visibility Wind Dir Wind Speed Gust Speed Precip Events Conditions
12:51 AM 42.1 °F - 30.9 °F 65% 29.83 in 10.0 mi Calm Calm - N/A   Clear
1:51 AM 39.9 °F - 32.0 °F 73% 29.79 in 10.0 mi Calm Calm - N/A   Clear
2:51 AM 39.0 °F - 32.0 °F 76% 29.78 in 10.0 mi Calm Calm - N/A   Clear
3:51 AM 41.0 °F - 32.0 °F 70% 29.73 in 10.0 mi Calm Calm - N/A   Clear
4:51 AM 37.0 °F 33.3 °F 32.0 °F 82% 29.72 in 10.0 mi East 4.6 mph - N/A   Clear
5:51 AM 36.0 °F - 30.9 °F 82% 29.71 in 10.0 mi Calm Calm - N/A   Clear
6:51 AM 35.1 °F 31.0 °F 30.0 °F 82% 29.71 in 10.0 mi WSW 4.6 mph - N/A   Clear
7:51 AM 36.0 °F - 30.9 °F 82% 29.72 in 10.0 mi Calm Calm - N/A   Clear
8:51 AM 39.9 °F 36.7 °F 34.0 °F 79% 29.70 in 9.0 mi East 4.6 mph - N/A   Clear
9:51 AM 46.0 °F 43.1 °F 37.0 °F 71% 29.69 in 10.0 mi NNW 5.8 mph - N/A   Clear
10:51 AM 55.0 °F - 37.9 °F 53% 29.67 in 10.0 mi Calm Calm - N/A   Clear
11:51 AM 68.0 °F - 28.9 °F 23% 29.63 in 10.0 mi SW 15.0 mph - N/A   Clear
12:51 PM 68.0 °F - 28.9 °F 23% 29.61 in 10.0 mi SSW 18.4 mph 25.3 mph N/A   Clear
1:51 PM 70.0 °F - 30.9 °F 24% 29.58 in 10.0 mi SSW 13.8 mph - N/A   Scattered Clouds
2:51 PM 68.0 °F - 30.0 °F 24% 29.56 in 10.0 mi SW 11.5 mph - N/A   Overcast
3:51 PM 68.0 °F - 32.0 °F 26% 29.55 in 10.0 mi West 8.1 mph - N/A   Overcast
4:51 PM 64.0 °F - 33.1 °F 31% 29.56 in 10.0 mi WNW 11.5 mph - N/A   Mostly Cloudy
5:42 PM 59.0 °F - 32.0 °F 36% 29.68 in 10.0 mi North 10.4 mph - N/A   Overcast
5:51 PM 57.9 °F - 32.0 °F 37% 29.64 in 10.0 mi North 21.9 mph 26.5 mph N/A   Overcast
6:51 PM 55.9 °F - 34.0 °F 44% 29.68 in 10.0 mi North 17.3 mph - N/A   Overcast
7:51 PM 48.0 °F - 39.9 °F 74% 29.78 in 10.0 mi North 16.1 mph - 0.00 in Rain Light Rain
8:35 PM 44.1 °F 39.0 °F 42.1 °F 93% 29.84 in 2.5 mi North 9.2 mph - 0.10 in Rain Rain
8:51 PM 44.1 °F 36.5 °F 41.0 °F 89% 29.83 in 3.0 mi NNE 17.3 mph - 0.17 in Rain Rain
9:51 PM 41.0 °F 33.9 °F 37.9 °F 89% 29.87 in 4.0 mi NNW 12.7 mph - 0.16 in Rain Rain
10:35 PM 41.0 °F 35.2 °F 37.0 °F 86% 29.87 in 10.0 mi SE 9.2 mph - 0.09 in Rain Light Rain
10:51 PM 41.0 °F 34.7 °F 37.0 °F 86% 29.84 in 10.0 mi SSW 10.4 mph - 0.09 in   Overcast
11:51 PM 39.9 °F 34.5 °F 37.0 °F 89% 29.80 in 10.0 mi South 8.1 mph - N/A   Overcast